Location: Unspecified
(52.4292°N, 19.3359°E)
Time: 23:18:58
(UTC+02:00)

SR - Pass Details

Date: 29 May 2024
Orbit: 580 x 858 km, 66.7° (Epoch: 12 June)

Event Time Altitude Azimuth Distance (km) Brightness Sun altitude
Rises 21:37:22 0° 309° (NW) 2,986 ? -5.8°
Reaches altitude 10° 21:40:51 10° 336° (NNW) 2,017 ? -6.2°
Maximum altitude 21:43:10 14° 7° (N) 1,750 ? -6.4°
Drops below altitude 10° 21:45:25 10° 38° (NE) 1,956 ? -6.6°
Sets 21:48:42 0° 65° (ENE) 2,826 ? -6.9°
